Other Public Products
Issued by NWS Grand Forks, ND

Home | Current Version | Previous Version | Text Only | Print | Product List | Glossary On
Versions: 1 2 3 4 5 6 7 8 9 10 11 12 13 14 15 16 17 18 19 20 21 22 23 24 25 26 27 28 29 30 31 32 33 34 35 36 37 38 39 40 41 42 43 44 45 46 47 48 49 50
000
FPUS83 KFGF 211731
OPUFGF
PRAIRIE TO PINES WEATHER ROUNDUP
NATIONAL WEATHER SERVICE EASTERN NORTH DAKOTA/GRAND FORKS ND
1100 AM CST SAT JAN 21 2017

 **SATELLITE DATA USED TO AUGMENT SKY COVER AT AUTOMATED STATIONS**
 *****  WEATHER ACROSS EASTERN NORTH DAKOTA  *****

CITY           SKY/WX    TMP DP  RH WIND       PRES   REMARKS
GRAND FORKS    CLOUDY    36  32  85 SE10      29.42S
GRAND FORKS AF CLOUDY    34  34 100 SE10      29.42R
GRAND CITY NWS NOT AVBL
BUXTON           N/A     34  34  99 E7          N/A
DEVILS LAKE    LGT RAIN  34  34 100 SE7       29.39R VSB 1/4
FARGO          CLOUDY    39  35  86 SE3       29.41R
WAHPETON ARPT  CLOUDY    34  32  93 E8        29.41F
$$

 *****  WEATHER ACROSS CENTRAL AND WESTERN NORTH DAKOTA  *****

CITY           SKY/WX    TMP DP  RH WIND       PRES   REMARKS
JAMESTOWN      CLOUDY    33  33 100 SE6       29.36R FOG
BISMARCK       CLOUDY    30  27  88 W3        29.39R FOG
MINOT          CLOUDY    30  27  88 S3        29.34S FOG
MINOT AFB      CLOUDY    27  26  96 CALM      29.33S FOG
GARRISON         N/A     22  21  96 CALM      29.34R
WILLISTON      CLOUDY    31  25  78 W6        29.35R
DICKINSON      PTSUNNY   29  24  82 W12       29.32R WCI  19
HETTINGER      CLOUDY    31  26  82 W15       29.36R WCI  20
$$

 *****  OTHER OBSERVATIONS NORTHEAST NORTH DAKOTA  *****

CITY           SKY/WX    TMP DP  RH WIND       PRES   REMARKS
WALHALLA       NOT AVBL
LANGDON        NOT AVBL
CAVALIER       CLOUDY    34  34 100 SE5       29.44S FOG
GRAFTON        CLOUDY    34  34 100 SE5       29.45S
CANDO          NOT AVBL
FORT TOTTEN      N/A     33  33 100 SE7       29.95S
ROLLA            N/A    N/A N/A N/A MISG        N/A
RUGBY          FOG       32  32 100 SE3       29.36S VSB<1/4
 ***** THE ABOVE OBSERVATIONS ARE NON NWS ARE NOT QUALITY
        CONTROLLED AND MAY MIS-REPORT RAIN FOR SNOW...
$$

 *****  OTHER OBSERVATIONS SOUTHEAST NORTH DAKOTA *****

CITY           SKY/WX    TMP DP  RH WIND       PRES   REMARKS
COOPERSTOWN    FOG       34  34 100 SE10      29.39S VSB<1/4
VALLEY CITY    LGT RAIN  32  32 100 SE9       29.40R VSB<1/4 WCI  24
OAKES          NOT AVBL
GWINNER        CLOUDY    34  34 100 E12       29.38S
SHEYENNE NWR     N/A     34  34 100 SE9       29.95S
BUFFALO          N/A     33  32  96 NE8         N/A
WYNDMERE         N/A     34  34 100 SE7         N/A
 ***** THE ABOVE OBSERVATIONS ARE NON NWS ARE NOT QUALITY
       CONTROLLED AND MAY MIS-REPORT RAIN FOR SNOW...
$$

  *****  WEATHER ACROSS NORTHERN MINNESOTA  *****

CITY           SKY/WX    TMP DP  RH WIND       PRES   REMARKS
FLAG ISLAND    CLOUDY    34  34 100 E6        29.48F
WARROAD        CLOUDY    36  30  80 E6        29.48S
ROSEAU         PTSUNNY   36  30  80 E8        29.46S
HALLOCK        CLOUDY    37  36  93 SE8       29.44S
THF RVR FALLS  CLOUDY    36  33  89 E7        29.45S
HALSTAD          N/A     35  32  90 SE7         N/A
FOSSTON        DRIZZLE   34  34 100 SE6       29.44S
BAUDETTE       CLOUDY    34  33  96 E6        29.47F
WASKISH        CLOUDY    36  36 100 SE6       29.47S
CROOKSTON      MIX PCPN  36  36 100 SE7       29.43S
$$
  *****  WEATHER ACROSS CENTRAL AND WEST MINNESOTA  *****

CITY           SKY/WX    TMP DP  RH WIND       PRES   REMARKS
BEMIDJI        CLOUDY    33  33 100 E8        29.46S FOG
PARK RAPIDS    CLOUDY    35  32  88 E6        29.42F
WADENA         FOG       34  34 100 E8        29.41F VSB 1/2
DETROIT LAKES  PTSUNNY   36  34  93 E7        29.42S
MOORHEAD       CLOUDY    36  34  93 S5        29.43R
FERGUS FALLS   CLOUDY    36  36 100 E7        29.44F
ELBOW LAKE     CLOUDY    33  33  99 SE9       29.41S FOG
MORRIS MN      CLOUDY    36  34  93 E9        29.39S FOG
STAPLES        DRIZZLE   34  34 100 CALM      29.43S
WHEATON        FOG       43  43 100 E8        29.42S VSB 1
$$
  *****  WEATHER ELSEWHERE ACROSS MINNESOTA  *****

CITY           SKY/WX    TMP DP  RH WIND       PRES   REMARKS
DULUTH         FOG       34  34 100 E10       29.46F VSB 1/2
INTRNTL FALLS  CLOUDY    34  33  96 E8        29.49F
ELY            CLOUDY    34  34 100 E3        29.50S
CLOQUET        DRIZZLE   34  34 100 E7        29.46F
BRAINERD       LGT RAIN  34  34 100 NE7       29.44F FOG
HIBBING        FOG       33  33 100 E7        29.47F VSB 3/4
ALEXANDRIA     CLOUDY    34  34 100 E9        29.41F FOG
SAINT CLOUD    FOG       34  34 100 E8        29.43S VSB 1/2
MINNEAPOLIS    CLOUDY    37  35  92 E8        29.41F FOG
$$

  *****  WEATHER ACROSS SOUTH DAKOTA  *****

CITY           SKY/WX    TMP DP  RH WIND       PRES   REMARKS
SIOUX FALLS    CLOUDY    31  31 100 W10       29.39R WCI  22
BROOKINGS      CLOUDY    35  34  96 SE5       29.35S FOG
WATERTOWN      FOG       34  34 100 SE5       29.35R VSB 3/4
HURON          CLOUDY    30  28  92 NW7       29.39R WCI  23
SISSETON         N/A     34  34 100 SE9       29.38S
ABERDEEN       CLOUDY    30  25  81 SW3       29.37R
MITCHELL       CLOUDY    31  29  92 W7        29.41R WCI  24
PIERRE         FOG       27  25  92 NW7       29.39R VSB 1/2 WCI  19
MOBRIDGE       CLOUDY    28  24  85 NW5       29.34S FOG     WCI  23
RAPID CITY     FAIR      38  30  73 W5        29.39R
$$

  *****  SOME WEATHER IN NEARBY STATES *****

CITY           SKY/WX    TMP DP  RH WIND       PRES   REMARKS
GLASGOW MT     PTSUNNY   15  12  88 W13       29.38R FOG     WCI   1
GREAT FALLS MT FAIR      23  18  81 SW7       29.40R WCI  15
CHEYENNE WY    FAIR      33  18  53 CALM      29.38R
SCOTTSBLUFF NE FAIR      31  25  78 CALM      29.43R
OMAHA NE       PTSUNNY   44  39  82 W5        29.44F
DES MOINES IA  CLOUDY    45  43  93 SW9       29.44S FOG
DAVENPORT IA   CLOUDY    47  42  83 SW14      29.47R
CHICAGO IL     FAIR      56  47  71 S12       29.50F
EAU CLAIRE WI  CLOUDY    35  35 100 E6        29.43F FOG
LA CROSSE WI   FOG       40  37  89 E5        29.42S VSB 1
$$

  *****  SOME NATIONAL WEATHER *****

CITY           SKY/WX    TMP DP  RH WIND       PRES   REMARKS
LA GUARDIA NY  PTSUNNY   48  42  80 W7        29.84F
RALEIGH NC     FOG       53  52  96 SE3       29.89F VSB 1/8
ATLANTA GA     HVY RAIN  57  56  96 NW26G38   29.75R VSB 1/2
NEW ORLEANS LA PTSUNNY   69  62  78 SE13      29.72F
OKLAHOMA CITY  CLOUDY    50  37  61 SE5       29.51F
ALBUQUERQUE NM PTSUNNY   38  32  79 S9G18     29.52R
SALT LAKE CITY HVY SNOW  32  30  92 W14       29.49R VSB 1/4 WCI  22
LOS ANGELES CA FAIR      55  42  61 VRB6      29.88R
BOISE ID       SNOW      32  30  92 S7        29.51R VSB 1/2
SEATTLE WA     CLOUDY    44  35  70 SE5       29.34R
$$

*** WEATHER ACROSS MANITOBA...SASKATCHEWAN AND ONTARIO ***
                ***ONTARIO***

CITY           SKY/WX    TMP DP  RH WIND       PRES   REMARKS
GERALDTON      DRIZZLE   34  34 100 SE5       29.62F FOG
THUNDER BAY    CLOUDY    36  36 100 E9        29.57F FOG
SIOUX LOOKOUT  LGT SNOW  34  34 100 SE3       29.54S FOG
TORONTO        CLOUDY    41  39  93 VRB2      29.75F FOG
BIG TROUT LK   CLOUDY    28  28 100 E7G18     29.69F WCI  21
PICKLE LAKE    LGT SNOW  32  32 100 E8        29.59S WCI  25
DRYDEN         LGT RAIN  34  34 100 SE8       29.52S
KENORA         CLOUDY    34  34 100 SE8       29.50  FOG
$$
                *** MANITOBA***

CITY           SKY/WX    TMP DP  RH WIND       PRES   REMARKS
BRANDON        FOG       34  32  93 SE7       29.39R VSB 1
DAUPHIN        CLOUDY    34  32  93 SE12      29.41S FOG
ISLAND LAKE    LGT RAIN  32  32 100 E3        29.58S FOG
PILOT MOUND      N/A     32  32 100 SE12        N/A  WCI  23
THE PAS        DRIZZLE   34  32  93 E8        29.44R FOG
THOMPSON       FLURRIES  28  28 100 NE7       29.59R WCI  21
WINNIPEG       DRIZZLE   36  34  93 SE9       29.46R
LYNN LAKE      LGT SNOW  27  27 100 E6        29.56S VSB 1   WCI  20
CHURCHILL      CLOUDY    16  14  93 SE17G25   29.83S WCI   0
GILLAM         LGT SNOW  28  27  93 E7        29.69S FOG     WCI  21
$$
                ***SASKATCHEWAN***

CITY           SKY/WX    TMP DP  RH WIND       PRES   REMARKS
ESTEVAN        FOG       18  16  93 CALM      29.34R VSB 3/4
KINDERSLEY     FOG       25  23  93 N9        29.40R VSB 1/8 WCI  15
LLOYDMINSTER   FOG       21  19  93 N7        29.45R VSB 1/8 WCI  13
PRINCE ALBERT  CLOUDY    27  23  86 NE6       29.42R WCI  20
REGINA         FOG       23  21  93 CALM      29.33R VSB 1/2
YORKTON        LGT SNOW  30  30 100 SE6       29.35R VC1F1C2F2C3F3C4F4C5F5C6F6C7F7C8F8C9F9CaFaCbFbCcFcCdFdCe!


USA.gov is the U.S. government's official web portal to all federal, state and local government web resources and services.